Winona, MN

10:30 PM CDT on May 21, 2018 (GMT -0500)
Winona Municipal-Conrad

Weather History for KONA - October, 2012

Change the Weather History Date:

Tuesday, October 16, 2012

  Actual Average Record
Temperature  
Mean Temperature 57 °F -  
Max Temperature 68 °F 59 °F 78 °F (1996)
Min Temperature 44 °F 40 °F 24 °F (2002)
Degree Days  
Heating Degree Days 8    
Growing Degree Days 7 (Base 50)    
Moisture  
Dew Point 42 °F    
Average Humidity 70    
Maximum Humidity 93    
Minimum Humidity 46    
Precipitation  
Precipitation 0.00 in - - ()
Sea Level Pressure  
Sea Level Pressure 29.58 in    
Wind  
Wind Speed 4 mph (SE)    
Max Wind Speed 12 mph    
Max Gust Speed 13 mph    
Visibility 10 miles    
Events Fog , Rain    
Averages and records for this station are not official NWS values.
T = Trace of Precipitation, MM = Missing Value Source: NWS Daily Summary

Daily Weather History Graph

Daily Weather History Graph

Search for Another Location

Airport or City:

Astronomy

Oct. 16, 2012 Rise Set
Actual Time 7:23 AM CDT 6:20 PM CDT
Civil Twilight 6:54 AM CDT 6:49 PM CDT
Nautical Twilight 6:20 AM CDT 7:23 PM CDT
Astronomical Twilight 5:47 AM CDT 7:56 PM CDT
Moon 8:51 AM CDT (10/16) 7:00 PM CDT (10/16)
Length of Visible Light 11h 55m
Length of Day
10h 57m
New Moon, 2% of the Moon is Illuminated
Oct 16
New Moon
Oct 21
First Quarter
Oct 29
Full
Nov 6
Last Quarter
Nov 13
New

Hourly Weather History & Observations

Time (CDT) Temp. Windchill Dew Point Humidity Pressure Visibility Wind Dir Wind Speed Gust Speed Precip Events Conditions
12:12 AM 46.4 °F - 39.2 °F 76% 29.83 in 10.0 mi Calm Calm - N/A   Overcast
12:32 AM 46.4 °F 44.3 °F 39.2 °F 76% 29.82 in 10.0 mi SE 4.6 mph - N/A   Scattered Clouds
12:51 AM 46.4 °F 44.3 °F 39.2 °F 76% 29.82 in 10.0 mi SE 4.6 mph - N/A   Clear
1:12 AM 46.4 °F 45.2 °F 41.0 °F 81% 29.81 in 10.0 mi SSE 3.5 mph - N/A   Clear
1:32 AM 46.4 °F - 39.2 °F 76% 29.80 in 10.0 mi Calm Calm - N/A   Clear
1:51 AM 46.4 °F 45.2 °F 39.2 °F 76% 29.79 in 10.0 mi SE 3.5 mph - N/A   Clear
2:12 AM 46.4 °F 45.2 °F 39.2 °F 76% 29.79 in 10.0 mi SSE 3.5 mph - N/A   Clear
2:32 AM 48.2 °F - 39.2 °F 71% 29.78 in 10.0 mi SE 6.9 mph - N/A   Clear
2:51 AM 46.4 °F 44.3 °F 37.4 °F 71% 29.77 in 10.0 mi SE 4.6 mph - N/A   Clear
3:12 AM 48.2 °F - 39.2 °F 71% 29.77 in 10.0 mi ESE 3.5 mph - N/A   Clear
3:32 AM 46.4 °F 43.5 °F 39.2 °F 76% 29.75 in 10.0 mi ESE 5.8 mph - N/A   Clear
3:51 AM 46.4 °F 44.3 °F 39.2 °F 76% 29.74 in 10.0 mi SE 4.6 mph - N/A   Clear
4:12 AM 46.4 °F 42.9 °F 39.2 °F 76% 29.74 in 10.0 mi ESE 6.9 mph - N/A   Clear
4:32 AM 46.4 °F 43.5 °F 39.2 °F 76% 29.73 in 10.0 mi SE 5.8 mph - N/A   Clear
4:51 AM 48.2 °F - 39.2 °F 71% 29.72 in 10.0 mi SE 4.6 mph - N/A   Scattered Clouds
5:32 AM 48.2 °F - 39.2 °F 71% 29.71 in 10.0 mi SE 6.9 mph - N/A   Clear
5:51 AM 50.0 °F - 39.2 °F 66% 29.71 in 10.0 mi ESE 5.8 mph - N/A   Clear
6:12 AM 50.0 °F - 39.2 °F 66% 29.70 in 10.0 mi ESE 4.6 mph - N/A   Clear
6:32 AM 50.0 °F - 39.2 °F 66% 29.69 in 10.0 mi SE 6.9 mph - N/A   Clear
7:12 AM 50.0 °F - 37.4 °F 62% 29.68 in 10.0 mi SE 4.6 mph - N/A   Clear
7:31 AM 46.4 °F 44.3 °F 37.4 °F 71% 29.67 in 10.0 mi SE 4.6 mph - N/A   Clear
7:52 AM 46.4 °F 42.4 °F 37.4 °F 71% 29.66 in 10.0 mi ESE 8.1 mph - N/A   Clear
8:12 AM 50.0 °F - 39.2 °F 66% 29.65 in 10.0 mi SE 5.8 mph - N/A   Clear
8:31 AM 51.8 °F - 41.0 °F 67% 29.65 in 10.0 mi ESE 3.5 mph - N/A   Scattered Clouds
8:51 AM 51.8 °F - 41.0 °F 67% 29.66 in 10.0 mi SE 3.5 mph - N/A   Scattered Clouds
9:12 AM 51.8 °F - 39.2 °F 62% 29.65 in 10.0 mi SE 5.8 mph - N/A   Scattered Clouds
9:31 AM 51.8 °F - 41.0 °F 67% 29.66 in 10.0 mi Calm Calm - N/A   Mostly Cloudy
9:51 AM 51.8 °F - 41.0 °F 67% 29.65 in 10.0 mi SE 4.6 mph - N/A Rain Light Rain
10:12 AM 53.6 °F - 41.0 °F 62% 29.64 in 10.0 mi SE 5.8 mph - N/A   Mostly Cloudy
10:31 AM 53.6 °F - 41.0 °F 62% 29.65 in 10.0 mi Calm Calm - N/A   Overcast
10:52 AM 53.6 °F - 42.8 °F 67% 29.64 in 10.0 mi ESE 4.6 mph - N/A   Overcast
11:12 AM 53.6 °F - 42.8 °F 67% 29.62 in 10.0 mi SE 5.8 mph - N/A Rain Light Rain
11:31 AM 53.6 °F - 42.8 °F 67% 29.61 in 10.0 mi SE 9.2 mph - N/A Rain Light Rain
11:52 AM 53.6 °F - 42.8 °F 67% 29.60 in 10.0 mi ESE 9.2 mph - N/A   Scattered Clouds
12:12 PM 53.6 °F - 42.8 °F 67% 29.59 in 10.0 mi SE 6.9 mph - N/A   Mostly Cloudy
12:31 PM 53.6 °F - 42.8 °F 67% 29.60 in 10.0 mi Calm Calm - N/A   Mostly Cloudy
12:52 PM 53.6 °F - 42.8 °F 67% 29.57 in 10.0 mi SSE 5.8 mph - N/A   Scattered Clouds
1:12 PM 53.6 °F - 42.8 °F 67% 29.55 in 10.0 mi ESE 5.8 mph - N/A   Scattered Clouds
1:31 PM 53.6 °F - 42.8 °F 67% 29.52 in 10.0 mi SE 6.9 mph - N/A   Mostly Cloudy
1:52 PM 57.2 °F - 42.8 °F 59% 29.50 in 10.0 mi SE 10.4 mph - N/A   Scattered Clouds
2:12 PM 57.2 °F - 42.8 °F 59% 29.48 in 10.0 mi ESE 11.5 mph - N/A   Scattered Clouds
2:31 PM 59.0 °F - 42.8 °F 55% 29.47 in 10.0 mi SSE 9.2 mph 12.7 mph N/A   Scattered Clouds
2:52 PM 62.6 °F - 42.8 °F 48% 29.46 in 10.0 mi SE 9.2 mph - N/A   Scattered Clouds
3:12 PM 60.8 °F - 42.8 °F 52% 29.48 in 10.0 mi SSE 3.5 mph - N/A   Scattered Clouds
3:31 PM 60.8 °F - 42.8 °F 52% 29.47 in 10.0 mi SE 4.6 mph - N/A   Scattered Clouds
3:52 PM 64.4 °F - 44.6 °F 49% 29.46 in 10.0 mi SE 8.1 mph - N/A   Clear
4:12 PM 64.4 °F - 44.6 °F 49% 29.44 in 10.0 mi SE 6.9 mph - N/A   Clear
4:31 PM 62.6 °F - 44.6 °F 52% 29.42 in 10.0 mi SE 9.2 mph - N/A   Clear
4:52 PM 66.2 °F - 46.4 °F 49% 29.43 in 10.0 mi SSE 11.5 mph - N/A   Clear
5:12 PM 68.0 °F - 46.4 °F 46% 29.44 in 10.0 mi SSE 4.6 mph - N/A   Clear
5:31 PM 66.2 °F - 46.4 °F 49% 29.44 in 10.0 mi South 3.5 mph - N/A   Scattered Clouds
5:52 PM 64.4 °F - 46.4 °F 52% 29.45 in 10.0 mi South 3.5 mph - N/A   Mostly Cloudy
6:12 PM 64.4 °F - 46.4 °F 52% 29.45 in 10.0 mi Calm Calm - N/A   Overcast
6:31 PM 59.0 °F - 46.4 °F 63% 29.44 in 10.0 mi ESE 3.5 mph - N/A   Mostly Cloudy
6:52 PM 57.2 °F - 46.4 °F 67% 29.44 in 10.0 mi Calm Calm - N/A   Clear
7:12 PM 53.6 °F - 46.4 °F 77% 29.43 in 10.0 mi Calm Calm - N/A   Clear
7:31 PM 53.6 °F - 46.4 °F 77% 29.43 in 10.0 mi Calm Calm - N/A   Clear
7:52 PM 51.8 °F - 46.4 °F 82% 29.42 in 10.0 mi Calm Calm - N/A   Clear
8:11 PM 51.8 °F - 44.6 °F 76% 29.41 in 10.0 mi Calm Calm - N/A   Clear
8:31 PM 51.8 °F - 46.4 °F 82% 29.41 in 10.0 mi Calm Calm - N/A   Clear
8:52 PM 50.0 °F - 44.6 °F 82% 29.42 in 10.0 mi Calm Calm - N/A   Clear
9:11 PM 50.0 °F - 46.4 °F 87% 29.42 in 10.0 mi Calm Calm - N/A   Clear
9:32 PM 50.0 °F - 46.4 °F 87% 29.41 in 10.0 mi Calm Calm - N/A   Clear
9:52 PM 50.0 °F - 46.4 °F 87% 29.42 in 10.0 mi Calm Calm - N/A   Clear
10:11 PM 46.4 °F - 44.6 °F 93% 29.41 in 10.0 mi Calm Calm - N/A   Clear
10:32 PM 46.4 °F - 44.6 °F 93% 29.41 in 5.0 mi Calm Calm - N/A   Clear
10:52 PM 46.4 °F - 44.6 °F 93% 29.41 in 5.0 mi Calm Calm - N/A   Clear
11:11 PM 46.4 °F - 44.6 °F 93% 29.41 in 5.0 mi Calm Calm - N/A   Clear
11:32 PM 46.4 °F - 44.6 °F 93% 29.40 in 4.0 mi Calm Calm - N/A   Clear
11:52 PM 44.6 °F - 42.8 °F 93% 29.41 in 0.2 mi Calm Calm - N/A Fog Fog